Latitude,Longitude,Height (m),Date (UTC),U_velocity (m/s),V_velocity (m/s),Wind_Speed (m/s),Wind_Dir (degrees)
39.5359001159668,-73.29296875,160,2020-01-01 00:00:00,11.27605,3.9306104,11.941482,250.78244
39.5359001159668,-73.29296875,160,2020-01-01 01:00:00,8.054072,4.3683224,9.16244,241.52573
39.5359001159668,-73.29296875,160,2020-01-01 02:00:00,7.3670406,6.423647,9.774279,228.91339
39.5359001159668,-73.29296875,160,2020-01-01 03:00:00,10.926247,6.7513638,12.8438225,238.28793
39.5359001159668,-73.29296875,160,2020-01-01 04:00:00,14.852061,-3.5851793,15.278653,283.57117
39.5359001159668,-73.29296875,160,2020-01-01 05:00:00,12.840363,-5.8066034,14.092252,294.3332
39.5359001159668,-73.29296875,160,2020-01-01 06:00:00,12.606093,-5.8965592,13.917004,295.06805
39.5359001159668,-73.29296875,160,2020-01-01 07:00:00,12.483927,-5.394702,13.599678,293.37073
39.5359001159668,-73.29296875,160,2020-01-01 08:00:00,12.431426,-5.2600846,13.498476,292.93457
39.5359001159668,-73.29296875,160,2020-01-01 09:00:00,12.217984,-4.197482,12.9189005,288.96014
39.5359001159668,-73.29296875,160,2020-01-01 10:00:00,12.054322,-4.206098,12.767065,289.23535
39.5359001159668,-73.29296875,160,2020-01-01 11:00:00,10.753155,-4.450506,11.637755,292.48364
39.5359001159668,-73.29296875,160,2020-01-01 12:00:00,11.98303,-3.9363272,12.612997,288.18494
39.5359001159668,-73.29296875,160,2020-01-01 13:00:00,14.313501,-3.472479,14.728694,283.6366
39.5359001159668,-73.29296875,160,2020-01-01 14:00:00,14.920899,-3.9295142,15.429657,284.7542
39.5359001159668,-73.29296875,160,2020-01-01 15:00:00,14.465345,-3.059383,14.785332,281.94193
39.5359001159668,-73.29296875,160,2020-01-01 16:00:00,13.29653,-2.9758503,13.625468,282.6153
39.5359001159668,-73.29296875,160,2020-01-01 17:00:00,12.859319,-2.4368956,13.088183,280.73056
39.5359001159668,-73.29296875,160,2020-01-01 18:00:00,12.932239,-2.710594,13.213255,281.83783
39.5359001159668,-73.29296875,160,2020-01-01 19:00:00,12.944133,-3.0112598,13.28978,283.09607
39.5359001159668,-73.29296875,160,2020-01-01 20:00:00,13.088736,-3.099075,13.4506235,283.32086
39.5359001159668,-73.29296875,160,2020-01-01 21:00:00,12.857163,-3.20845,13.251446,284.01175
39.5359001159668,-73.29296875,160,2020-01-01 22:00:00,12.89162,-3.765324,13.430246,286.2818
39.5359001159668,-73.29296875,160,2020-01-01 23:00:00,13.128375,-3.941414,13.70726,286.71088
39.5359001159668,-73.29296875,160,2020-01-02 00:00:00,12.656423,-4.771017,13.525813,290.65466
39.5359001159668,-73.29296875,160,2020-01-02 01:00:00,10.434627,-6.310763,12.194554,301.16516
39.5359001159668,-73.29296875,160,2020-01-02 02:00:00,9.777315,-5.8518047,11.394714,300.90088
39.5359001159668,-73.29296875,160,2020-01-02 03:00:00,8.602946,-4.885116,9.893182,299.58972
39.5359001159668,-73.29296875,160,2020-01-02 04:00:00,7.622513,-3.7578156,8.498464,296.2428
39.5359001159668,-73.29296875,160,2020-01-02 05:00:00,7.1725507,-2.8361175,7.7129145,291.57446
39.5359001159668,-73.29296875,160,2020-01-02 06:00:00,6.6893578,-2.2405324,7.054608,288.51776
39.5359001159668,-73.29296875,160,2020-01-02 07:00:00,6.289195,-1.5859215,6.4860716,284.15298
39.5359001159668,-73.29296875,160,2020-01-02 08:00:00,5.712203,-2.0118845,6.0561495,289.40268
39.5359001159668,-73.29296875,160,2020-01-02 09:00:00,6.2092295,-1.7013769,6.4381065,285.32336
39.5359001159668,-73.29296875,160,2020-01-02 10:00:00,6.855819,0.431018,6.8693547,266.40262
39.5359001159668,-73.29296875,160,2020-01-02 11:00:00,6.348918,1.5433325,6.533807,256.33722
39.5359001159668,-73.29296875,160,2020-01-02 12:00:00,5.8189726,2.6140394,6.379157,245.8091
39.5359001159668,-73.29296875,160,2020-01-02 13:00:00,5.476103,3.291655,6.389264,238.99017
39.5359001159668,-73.29296875,160,2020-01-02 14:00:00,4.631211,4.3150654,6.3299212,227.0239
39.5359001159668,-73.29296875,160,2020-01-02 15:00:00,3.4743328,5.065934,6.1428556,214.44322
39.5359001159668,-73.29296875,160,2020-01-02 16:00:00,3.586636,6.493705,7.4183664,208.91296
39.5359001159668,-73.29296875,160,2020-01-02 17:00:00,4.6377764,8.322139,9.52717,209.13013
39.5359001159668,-73.29296875,160,2020-01-02 18:00:00,7.4240513,9.4304905,12.002111,218.2112
39.5359001159668,-73.29296875,160,2020-01-02 19:00:00,8.28407,9.152673,12.344928,222.1482
39.5359001159668,-73.29296875,160,2020-01-02 20:00:00,8.585583,9.242122,12.614636,222.89091
39.5359001159668,-73.29296875,160,2020-01-02 21:00:00,8.369011,9.43,12.608142,221.58865
39.5359001159668,-73.29296875,160,2020-01-02 22:00:00,9.185121,9.288679,13.063154,224.67882
39.5359001159668,-73.29296875,160,2020-01-02 23:00:00,9.896176,9.703988,13.860075,225.5618
39.5359001159668,-73.29296875,160,2020-01-03 00:00:00,9.837605,10.02012,14.042125,224.4734
39.5359001159668,-73.29296875,160,2020-01-03 01:00:00,9.528203,10.424908,14.12322,222.42682
39.5359001159668,-73.29296875,160,2020-01-03 02:00:00,10.168439,10.202218,14.404249,224.90498
39.5359001159668,-73.29296875,160,2020-01-03 03:00:00,11.545635,10.730711,15.762292,227.0951
39.5359001159668,-73.29296875,160,2020-01-03 04:00:00,12.954307,9.9586525,16.339792,232.44864
39.5359001159668,-73.29296875,160,2020-01-03 05:00:00,13.7511835,8.320902,16.072723,238.82169
39.5359001159668,-73.29296875,160,2020-01-03 06:00:00,15.453506,8.12076,17.457308,242.27824
39.5359001159668,-73.29296875,160,2020-01-03 07:00:00,13.731205,6.7640514,15.306808,243.77493
39.5359001159668,-73.29296875,160,2020-01-03 08:00:00,12.707072,7.195437,14.602876,240.4791
39.5359001159668,-73.29296875,160,2020-01-03 09:00:00,12.029016,6.051495,13.46543,243.29419
39.5359001159668,-73.29296875,160,2020-01-03 10:00:00,11.615554,6.1569014,13.146426,242.07388
39.5359001159668,-73.29296875,160,2020-01-03 11:00:00,11.53037,6.8373756,13.40519,239.33255
39.5359001159668,-73.29296875,160,2020-01-03 12:00:00,10.941408,6.952433,12.963438,237.56714
39.5359001159668,-73.29296875,160,2020-01-03 13:00:00,11.103453,7.9538217,13.658329,234.38455
39.5359001159668,-73.29296875,160,2020-01-03 14:00:00,13.569641,7.502726,15.505678,241.06157
39.5359001159668,-73.29296875,160,2020-01-03 15:00:00,12.336684,6.643946,14.011987,241.69522
39.5359001159668,-73.29296875,160,2020-01-03 16:00:00,11.644671,6.0117497,13.104942,242.69423
39.5359001159668,-73.29296875,160,2020-01-03 17:00:00,9.378822,5.605097,10.926089,239.13605
39.5359001159668,-73.29296875,160,2020-01-03 18:00:00,8.006382,4.5505548,9.209218,240.38757
39.5359001159668,-73.29296875,160,2020-01-03 19:00:00,6.544681,3.0734937,7.230437,244.84445
39.5359001159668,-73.29296875,160,2020-01-03 20:00:00,5.84719,2.2437973,6.262927,249.00623
39.5359001159668,-73.29296875,160,2020-01-03 21:00:00,5.2105227,1.7861022,5.508149,251.07892
39.5359001159668,-73.29296875,160,2020-01-03 22:00:00,4.9878216,0.8732521,5.063688,260.0695
39.5359001159668,-73.29296875,160,2020-01-03 23:00:00,4.3619437,0.016919037,4.3619766,269.77777
39.5359001159668,-73.29296875,160,2020-01-04 00:00:00,3.4401581,0.28545648,3.451981,265.2566
39.5359001159668,-73.29296875,160,2020-01-04 01:00:00,4.2280583,-0.48433092,4.2557087,276.53485
39.5359001159668,-73.29296875,160,2020-01-04 02:00:00,3.9668972,0.82118607,4.0510025,258.3044
39.5359001159668,-73.29296875,160,2020-01-04 03:00:00,2.2714546,-0.18561383,2.2790258,274.6716
39.5359001159668,-73.29296875,160,2020-01-04 04:00:00,3.0821931,0.81406385,3.1878855,255.20499
39.5359001159668,-73.29296875,160,2020-01-04 05:00:00,2.115925,2.714196,3.4415112,217.93916
39.5359001159668,-73.29296875,160,2020-01-04 06:00:00,1.9169868,1.4545618,2.4063642,232.80968
39.5359001159668,-73.29296875,160,2020-01-04 07:00:00,1.079524,3.6471095,3.803522,196.48845
39.5359001159668,-73.29296875,160,2020-01-04 08:00:00,2.231311,4.697386,5.2004023,205.40825
39.5359001159668,-73.29296875,160,2020-01-04 09:00:00,3.3778334,5.2355356,6.230617,212.82907
39.5359001159668,-73.29296875,160,2020-01-04 10:00:00,4.5898266,7.18654,8.5271845,212.56514
39.5359001159668,-73.29296875,160,2020-01-04 11:00:00,7.594012,6.123557,9.755356,231.11845
39.5359001159668,-73.29296875,160,2020-01-04 12:00:00,8.94487,5.380957,10.438649,238.97018
39.5359001159668,-73.29296875,160,2020-01-04 13:00:00,9.153502,4.2090244,10.074844,245.30577
39.5359001159668,-73.29296875,160,2020-01-04 14:00:00,8.649202,4.1197863,9.580258,244.53062
39.5359001159668,-73.29296875,160,2020-01-04 15:00:00,8.804671,5.104503,10.177338,239.897
39.5359001159668,-73.29296875,160,2020-01-04 16:00:00,9.873946,5.488628,11.296896,240.93164
39.5359001159668,-73.29296875,160,2020-01-04 17:00:00,11.105881,5.9685783,12.608112,241.7453
39.5359001159668,-73.29296875,160,2020-01-04 18:00:00,11.26546,6.7580514,13.137041,239.04082
39.5359001159668,-73.29296875,160,2020-01-04 19:00:00,11.080154,5.305412,12.284837,244.41391
39.5359001159668,-73.29296875,160,2020-01-04 20:00:00,10.479019,5.60296,11.882887,241.86731
39.5359001159668,-73.29296875,160,2020-01-04 21:00:00,10.25141,6.252025,12.007465,238.62224
39.5359001159668,-73.29296875,160,2020-01-04 22:00:00,10.569594,1.105498,10.62725,264.02902
39.5359001159668,-73.29296875,160,2020-01-04 23:00:00,11.410886,-3.9848545,12.086661,289.24997
39.5359001159668,-73.29296875,160,2020-01-05 00:00:00,11.01462,-7.7672324,13.477824,305.19052
39.5359001159668,-73.29296875,160,2020-01-05 01:00:00,3.2646492,-6.178701,6.988153,332.1493
39.5359001159668,-73.29296875,160,2020-01-05 02:00:00,4.943724,-4.867983,6.9381313,314.5577
39.5359001159668,-73.29296875,160,2020-01-05 03:00:00,7.6175704,-13.822971,15.782963,331.1417
39.5359001159668,-73.29296875,160,2020-01-05 04:00:00,5.7777247,-13.913606,15.065541,337.44897
39.5359001159668,-73.29296875,160,2020-01-05 05:00:00,8.765883,-14.8874235,17.27646,329.50995
39.5359001159668,-73.29296875,160,2020-01-05 06:00:00,8.028053,-17.66992,19.408134,335.56607
39.5359001159668,-73.29296875,160,2020-01-05 07:00:00,9.737754,-15.301101,18.136911,327.52698
39.5359001159668,-73.29296875,160,2020-01-05 08:00:00,9.791815,-14.618535,17.59492,326.18497
39.5359001159668,-73.29296875,160,2020-01-05 09:00:00,9.894124,-14.236571,17.33706,325.20148
39.5359001159668,-73.29296875,160,2020-01-05 10:00:00,11.249798,-13.869599,17.858437,320.95407
39.5359001159668,-73.29296875,160,2020-01-05 11:00:00,14.260958,-13.48696,19.628372,313.40222
39.5359001159668,-73.29296875,160,2020-01-05 12:00:00,14.329197,-13.724762,19.84175,313.76572
39.5359001159668,-73.29296875,160,2020-01-05 13:00:00,13.651088,-12.845043,18.744263,313.25754
39.5359001159668,-73.29296875,160,2020-01-05 14:00:00,13.36062,-12.429699,18.248384,312.93277
39.5359001159668,-73.29296875,160,2020-01-05 15:00:00,12.267237,-10.886915,16.401525,311.58838
39.5359001159668,-73.29296875,160,2020-01-05 16:00:00,12.266958,-8.915097,15.164341,306.00806
39.5359001159668,-73.29296875,160,2020-01-05 17:00:00,13.233842,-8.529327,15.744332,302.80212
39.5359001159668,-73.29296875,160,2020-01-05 18:00:00,12.691109,-7.863859,14.929988,301.7838
39.5359001159668,-73.29296875,160,2020-01-05 19:00:00,12.382675,-8.295772,14.904713,303.8201
39.5359001159668,-73.29296875,160,2020-01-05 20:00:00,11.266156,-7.7329197,13.664711,304.46512
39.5359001159668,-73.29296875,160,2020-01-05 21:00:00,10.899135,-6.928917,12.915147,302.44537
39.5359001159668,-73.29296875,160,2020-01-05 22:00:00,10.761907,-6.306953,12.473824,300.3722
39.5359001159668,-73.29296875,160,2020-01-05 23:00:00,10.710908,-5.8536677,12.206104,298.65726
39.5359001159668,-73.29296875,160,2020-01-06 00:00:00,10.799158,-6.140556,12.422892,299.62317
39.5359001159668,-73.29296875,160,2020-01-06 01:00:00,10.161732,-6.955744,12.314347,304.39178
39.5359001159668,-73.29296875,160,2020-01-06 02:00:00,9.849624,-5.9280906,11.495971,301.04205
39.5359001159668,-73.29296875,160,2020-01-06 03:00:00,9.816483,-4.1346684,10.651705,292.84064
39.5359001159668,-73.29296875,160,2020-01-06 04:00:00,8.5143585,-3.814705,9.329859,294.1339
39.5359001159668,-73.29296875,160,2020-01-06 05:00:00,7.850032,-3.175807,8.4681015,292.02628
39.5359001159668,-73.29296875,160,2020-01-06 06:00:00,6.946416,-4.1175075,8.075058,300.65747
39.5359001159668,-73.29296875,160,2020-01-06 07:00:00,5.0502944,-2.7793074,5.764549,298.82513
39.5359001159668,-73.29296875,160,2020-01-06 08:00:00,4.487186,-1.0120379,4.599898,282.7098
39.5359001159668,-73.29296875,160,2020-01-06 09:00:00,4.3513746,0.6435315,4.3987036,261.5874
39.5359001159668,-73.29296875,160,2020-01-06 10:00:00,5.43471,2.7118123,6.073714,243.48172
39.5359001159668,-73.29296875,160,2020-01-06 11:00:00,6.391359,4.1840057,7.6390686,236.78986
39.5359001159668,-73.29296875,160,2020-01-06 12:00:00,7.2711825,4.8736377,8.753425,236.16733
39.5359001159668,-73.29296875,160,2020-01-06 13:00:00,7.3050947,5.2485228,8.995076,234.30373
39.5359001159668,-73.29296875,160,2020-01-06 14:00:00,9.5022955,3.654191,10.180704,248.96532
39.5359001159668,-73.29296875,160,2020-01-06 15:00:00,11.870671,2.1458063,12.063057,259.75354
39.5359001159668,-73.29296875,160,2020-01-06 16:00:00,12.919237,-0.15286449,12.920141,270.67792
39.5359001159668,-73.29296875,160,2020-01-06 17:00:00,13.447508,-1.3250548,13.512632,275.6275
39.5359001159668,-73.29296875,160,2020-01-06 18:00:00,14.384214,-1.7882124,14.494942,277.08652
39.5359001159668,-73.29296875,160,2020-01-06 19:00:00,12.870728,-1.7905858,12.994684,277.9202
39.5359001159668,-73.29296875,160,2020-01-06 20:00:00,12.1488695,-3.1250596,12.544362,284.42548
39.5359001159668,-73.29296875,160,2020-01-06 21:00:00,11.6507015,-4.037705,12.330527,289.11444
39.5359001159668,-73.29296875,160,2020-01-06 22:00:00,11.355538,-4.0390153,12.0524645,289.5798
39.5359001159668,-73.29296875,160,2020-01-06 23:00:00,11.017922,-3.8143318,11.659492,289.09552
39.5359001159668,-73.29296875,160,2020-01-07 00:00:00,10.199754,-3.8054888,10.8865385,290.46036
39.5359001159668,-73.29296875,160,2020-01-07 01:00:00,8.7424,0.948649,8.793719,263.807
39.5359001159668,-73.29296875,160,2020-01-07 02:00:00,10.529407,0.8185739,10.561177,265.5547
39.5359001159668,-73.29296875,160,2020-01-07 03:00:00,11.745718,-1.1683679,11.803685,275.68063
39.5359001159668,-73.29296875,160,2020-01-07 04:00:00,11.422487,-2.682859,11.733327,283.21777
39.5359001159668,-73.29296875,160,2020-01-07 05:00:00,10.681107,-3.4177318,11.214585,287.7436
39.5359001159668,-73.29296875,160,2020-01-07 06:00:00,10.354848,-3.3274724,10.8763485,287.8145
39.5359001159668,-73.29296875,160,2020-01-07 07:00:00,9.59784,-3.9326813,10.372295,292.2812
39.5359001159668,-73.29296875,160,2020-01-07 08:00:00,8.988399,-5.0417547,10.305853,299.28885
39.5359001159668,-73.29296875,160,2020-01-07 09:00:00,7.030019,-6.276243,9.424033,311.75775
39.5359001159668,-73.29296875,160,2020-01-07 10:00:00,5.060008,-6.060102,7.894841,320.1391
39.5359001159668,-73.29296875,160,2020-01-07 11:00:00,3.3155274,-5.2454357,6.205426,327.7039
39.5359001159668,-73.29296875,160,2020-01-07 12:00:00,2.3728483,-3.5915887,4.3046393,326.54852
39.5359001159668,-73.29296875,160,2020-01-07 13:00:00,0.39654505,-3.1382747,3.1632288,352.7984
39.5359001159668,-73.29296875,160,2020-01-07 14:00:00,-0.22068195,-1.889445,1.9022889,6.661804
39.5359001159668,-73.29296875,160,2020-01-07 15:00:00,-1.59933,-1.0003163,1.8863957,57.975677
39.5359001159668,-73.29296875,160,2020-01-07 16:00:00,-2.0961154,1.1346413,2.383508,118.427
39.5359001159668,-73.29296875,160,2020-01-07 17:00:00,-3.0477724,2.5270917,3.9591804,129.66418
39.5359001159668,-73.29296875,160,2020-01-07 18:00:00,-3.9311225,2.886313,4.8769383,126.286896
39.5359001159668,-73.29296875,160,2020-01-07 19:00:00,-4.9115953,2.6736867,5.5921702,118.562195
39.5359001159668,-73.29296875,160,2020-01-07 20:00:00,-6.355779,1.7594469,6.594815,105.47348
39.5359001159668,-73.29296875,160,2020-01-07 21:00:00,-7.51489,2.2068553,7.832227,106.36563
39.5359001159668,-73.29296875,160,2020-01-07 22:00:00,-8.030944,-0.2255434,8.034111,88.3913
39.5359001159668,-73.29296875,160,2020-01-07 23:00:00,-8.752281,-1.6693608,8.910061,79.201416
39.5359001159668,-73.29296875,160,2020-01-08 00:00:00,-7.617589,-5.2296267,9.239949,55.529633
39.5359001159668,-73.29296875,160,2020-01-08 01:00:00,-5.7985544,-7.6028194,9.5617,37.332214
39.5359001159668,-73.29296875,160,2020-01-08 02:00:00,2.8589191,-11.490573,11.84089,346.02817
39.5359001159668,-73.29296875,160,2020-01-08 03:00:00,5.0373855,-14.855998,15.686808,341.2692
39.5359001159668,-73.29296875,160,2020-01-08 04:00:00,8.295389,-12.813152,15.264022,327.0805
39.5359001159668,-73.29296875,160,2020-01-08 05:00:00,10.676205,-9.955101,14.597445,312.99823
39.5359001159668,-73.29296875,160,2020-01-08 06:00:00,10.057697,-8.251766,13.00957,309.3669
39.5359001159668,-73.29296875,160,2020-01-08 07:00:00,10.536412,-6.2675476,12.259614,300.74615
39.5359001159668,-73.29296875,160,2020-01-08 08:00:00,11.021033,-5.981626,12.539659,298.49072
39.5359001159668,-73.29296875,160,2020-01-08 09:00:00,11.064508,-3.9553187,11.750229,289.67084
39.5359001159668,-73.29296875,160,2020-01-08 10:00:00,11.489161,-0.77828455,11.5154915,273.87534
39.5359001159668,-73.29296875,160,2020-01-08 11:00:00,12.722272,1.9438124,12.869911,261.31305
39.5359001159668,-73.29296875,160,2020-01-08 12:00:00,14.095793,0.9164254,14.125551,266.2802
39.5359001159668,-73.29296875,160,2020-01-08 13:00:00,13.693099,0.5782815,13.705304,267.58176
39.5359001159668,-73.29296875,160,2020-01-08 14:00:00,15.746321,0.24638923,15.748248,269.10355
39.5359001159668,-73.29296875,160,2020-01-08 15:00:00,17.214607,1.3603189,17.26827,265.4818
39.5359001159668,-73.29296875,160,2020-01-08 16:00:00,18.36047,0.2916886,18.362787,269.08984
39.5359001159668,-73.29296875,160,2020-01-08 17:00:00,18.287203,-1.2077895,18.327044,273.77866
39.5359001159668,-73.29296875,160,2020-01-08 18:00:00,18.179726,-1.8706493,18.275715,275.8749
39.5359001159668,-73.29296875,160,2020-01-08 19:00:00,16.783813,-2.5749078,16.98018,278.7221
39.5359001159668,-73.29296875,160,2020-01-08 20:00:00,16.644693,-2.5401769,16.837408,278.67706
39.5359001159668,-73.29296875,160,2020-01-08 21:00:00,15.785949,-3.3680072,16.141241,282.04376
39.5359001159668,-73.29296875,160,2020-01-08 22:00:00,18.813591,-7.1628256,20.131002,290.84314
39.5359001159668,-73.29296875,160,2020-01-08 23:00:00,17.96475,-7.53522,19.481062,292.75537
39.5359001159668,-73.29296875,160,2020-01-09 00:00:00,16.425505,-10.453618,19.469858,302.47372
39.5359001159668,-73.29296875,160,2020-01-09 01:00:00,16.798512,-9.823435,19.459955,300.31824
39.5359001159668,-73.29296875,160,2020-01-09 02:00:00,14.620838,-11.462057,18.57815,308.0948
39.5359001159668,-73.29296875,160,2020-01-09 03:00:00,12.916711,-11.431264,17.248629,311.50876
39.5359001159668,-73.29296875,160,2020-01-09 04:00:00,11.769021,-10.174868,15.557564,310.84494
39.5359001159668,-73.29296875,160,2020-01-09 05:00:00,10.98857,-9.065002,14.245103,309.52087
39.5359001159668,-73.29296875,160,2020-01-09 06:00:00,10.337048,-9.560496,14.0803995,312.765
39.5359001159668,-73.29296875,160,2020-01-09 07:00:00,9.494958,-8.615697,12.82125,312.22052
39.5359001159668,-73.29296875,160,2020-01-09 08:00:00,7.8948445,-9.508402,12.358733,320.2971
39.5359001159668,-73.29296875,160,2020-01-09 09:00:00,7.1959853,-9.070403,11.578187,321.57336
39.5359001159668,-73.29296875,160,2020-01-09 10:00:00,6.502824,-7.548497,9.963259,319.25598
39.5359001159668,-73.29296875,160,2020-01-09 11:00:00,5.732794,-7.4953737,9.436395,322.58963
39.5359001159668,-73.29296875,160,2020-01-09 12:00:00,4.8223166,-7.9194217,9.272107,328.6618
39.5359001159668,-73.29296875,160,2020-01-09 13:00:00,3.9798832,-8.342343,9.24306,334.49557
39.5359001159668,-73.29296875,160,2020-01-09 14:00:00,2.523207,-8.017555,8.405223,342.53067
39.5359001159668,-73.29296875,160,2020-01-09 15:00:00,1.3608361,-6.6772413,6.8145013,348.48074
39.5359001159668,-73.29296875,160,2020-01-09 16:00:00,1.584142,-4.918976,5.1677685,342.149
39.5359001159668,-73.29296875,160,2020-01-09 17:00:00,1.7694265,-3.6569846,4.0625615,334.18005
39.5359001159668,-73.29296875,160,2020-01-09 18:00:00,1.8301362,-2.9465463,3.46865,328.1551
39.5359001159668,-73.29296875,160,2020-01-09 19:00:00,1.1976198,-2.320115,2.6109822,332.6977
39.5359001159668,-73.29296875,160,2020-01-09 20:00:00,1.1671833,-1.5484856,1.9391041,322.99255
39.5359001159668,-73.29296875,160,2020-01-09 21:00:00,0.6262828,-0.81156105,1.0251154,322.3426
39.5359001159668,-73.29296875,160,2020-01-09 22:00:00,0.111010075,0.24017322,0.26458725,204.80678
39.5359001159668,-73.29296875,160,2020-01-09 23:00:00,0.4411063,1.5534596,1.614872,195.85194
39.5359001159668,-73.29296875,160,2020-01-10 00:00:00,0.41226357,2.7607887,2.7914002,188.49312
39.5359001159668,-73.29296875,160,2020-01-10 01:00:00,-1.5560222,3.4029665,3.7418427,155.42755
39.5359001159668,-73.29296875,160,2020-01-10 02:00:00,-1.2822641,4.8804727,5.0461087,165.27917
39.5359001159668,-73.29296875,160,2020-01-10 03:00:00,-0.80793464,5.877673,5.932942,172.17328
39.5359001159668,-73.29296875,160,2020-01-10 04:00:00,0.56447184,7.1670747,7.189269,184.50327
39.5359001159668,-73.29296875,160,2020-01-10 05:00:00,1.0880522,8.076986,8.149943,187.67213
39.5359001159668,-73.29296875,160,2020-01-10 06:00:00,2.4864476,8.088546,8.462091,197.08762
39.5359001159668,-73.29296875,160,2020-01-10 07:00:00,2.946644,8.721844,9.206154,198.66736
39.5359001159668,-73.29296875,160,2020-01-10 08:00:00,4.1893315,9.001261,9.928404,204.95802
39.5359001159668,-73.29296875,160,2020-01-10 09:00:00,4.240033,9.0641,10.006787,205.0694
39.5359001159668,-73.29296875,160,2020-01-10 10:00:00,4.3883414,9.273773,10.259649,205.32347
39.5359001159668,-73.29296875,160,2020-01-10 11:00:00,4.848272,9.759711,10.8976,206.41653
39.5359001159668,-73.29296875,160,2020-01-10 12:00:00,5.101123,9.587362,10.859971,208.01598
39.5359001159668,-73.29296875,160,2020-01-10 13:00:00,4.5990324,10.052526,11.054609,204.58409
39.5359001159668,-73.29296875,160,2020-01-10 14:00:00,4.6090126,10.884327,11.819965,202.95042
39.5359001159668,-73.29296875,160,2020-01-10 15:00:00,5.060316,12.689066,13.660863,201.74178
39.5359001159668,-73.29296875,160,2020-01-10 16:00:00,5.6219015,14.057323,15.139819,201.79779
39.5359001159668,-73.29296875,160,2020-01-10 17:00:00,6.283682,14.91256,16.182371,202.84903
39.5359001159668,-73.29296875,160,2020-01-10 18:00:00,7.106677,14.191772,15.871713,206.5999
39.5359001159668,-73.29296875,160,2020-01-10 19:00:00,8.763174,13.892374,16.425325,212.24332
39.5359001159668,-73.29296875,160,2020-01-10 20:00:00,9.726184,14.333327,17.321747,214.15968
39.5359001159668,-73.29296875,160,2020-01-10 21:00:00,10.013477,14.482555,17.60722,214.66061
39.5359001159668,-73.29296875,160,2020-01-10 22:00:00,11.3279295,15.001267,18.797873,217.0576
39.5359001159668,-73.29296875,160,2020-01-10 23:00:00,11.398122,14.881766,18.745243,217.44893
39.5359001159668,-73.29296875,160,2020-01-11 00:00:00,11.164032,14.954755,18.66227,216.7421
39.5359001159668,-73.29296875,160,2020-01-11 01:00:00,6.360972,15.8211975,17.052046,201.90279
39.5359001159668,-73.29296875,160,2020-01-11 02:00:00,6.78327,16.417486,17.763632,202.44911
39.5359001159668,-73.29296875,160,2020-01-11 03:00:00,7.9247823,15.916069,17.779861,206.46921
39.5359001159668,-73.29296875,160,2020-01-11 04:00:00,8.633332,16.375055,18.511534,207.7993
39.5359001159668,-73.29296875,160,2020-01-11 05:00:00,10.088652,17.12643,19.87701,210.50102
39.5359001159668,-73.29296875,160,2020-01-11 06:00:00,8.800199,18.46114,20.451338,205.48656
39.5359001159668,-73.29296875,160,2020-01-11 07:00:00,8.436697,18.051163,19.925419,205.0503
39.5359001159668,-73.29296875,160,2020-01-11 08:00:00,8.851812,18.45032,20.463842,205.63005
39.5359001159668,-73.29296875,160,2020-01-11 09:00:00,9.35125,18.011892,20.294682,207.43703
39.5359001159668,-73.29296875,160,2020-01-11 10:00:00,8.33536,17.140947,19.060175,205.93288
39.5359001159668,-73.29296875,160,2020-01-11 11:00:00,7.403151,16.527094,18.10943,204.12953
39.5359001159668,-73.29296875,160,2020-01-11 12:00:00,8.998427,16.830637,19.085127,208.13098
39.5359001159668,-73.29296875,160,2020-01-11 13:00:00,8.26689,18.086435,19.88619,204.56404
39.5359001159668,-73.29296875,160,2020-01-11 14:00:00,9.847849,18.455372,20.918434,208.08453
39.5359001159668,-73.29296875,160,2020-01-11 15:00:00,9.081945,18.646976,20.741058,205.96823